Location: Austin
(30.3000°N, 97.7500°W)
Time: 05:27:06
(UTC-06:00)

Cosmos 1943 Rocket - Pass Details

Date: 03 March 2026
Orbit: 810 x 843 km, 71.0° (Epoch: 5 March)

Event Time Altitude Azimuth Distance (km) Brightness Sun altitude
Rises 19:29:23 0° 191° (S) 3,315 5.4 -13.3°
Reaches altitude 10° 19:31:48 10° 188° (S) 2,389 4.7 -13.8°
Maximum altitude 19:37:12 66° 107° (ESE) 887 2.1 -15.0°
Drops below altitude 10° 19:42:41 10° 26° (NNE) 2,417 4.3 -16.2°
Sets 19:45:08 0° 24° (NNE) 3,358 5.1 -16.7°
